Gambell, AK

2:04 AM AKDT on October 23, 2017 (GMT -0800)
Gambell

Weather History for PAGM - June, 2013

Change the Weather History Date:

Monday, June 10, 2013

  Actual Average Record
Temperature  
Mean Temperature 35 °F -  
Max Temperature 37 °F 40 °F 46 °F (2002)
Min Temperature 33 °F 33 °F 28 °F (2012)
Degree Days  
Heating Degree Days 30    
Moisture  
Dew Point 32 °F    
Average Humidity 88    
Maximum Humidity 93    
Minimum Humidity 75    
Precipitation  
Precipitation 0.00 in - - ()
Sea Level Pressure  
Sea Level Pressure 30.34 in    
Wind  
Wind Speed 18 mph (SSW)    
Max Wind Speed 23 mph    
Max Gust Speed -    
Visibility 5 miles    
Events      
Averages and records for this station are not official NWS values.
T = Trace of Precipitation, MM = Missing Value Source: NWS Daily Summary

Daily Weather History Graph

Daily Weather History Graph

Search for Another Location

Airport or City:

Trip Planner

Search our weather history database for the weather conditions in past years. The results will help you decide how hot, cold, wet, or windy it might be!

Date:

Astronomy

Jun. 10, 2013 Rise Set
Actual Time 5:10 AM AKDT 1:44 AM AKDT
Civil Twilight Sun does not rise Sun does not rise
Nautical Twilight Sun does not rise Sun does not rise
Astronomical Twilight Sun does not rise Sun does not rise
Moon 8:08 AM AKDT (6/10) 1:44 AM AKDT (6/10)
Length of Visible Light 24h 00m
Length of Day
20h 33m
Waxing Crescent, 4% of the Moon is Illuminated
Jun 10
Waxing Crescent
Jun 16
First Quarter
Jun 23
Full
Jun 29
Last Quarter
Jul 7
New

Hourly Weather History & Observations

Time (AKDT) Temp. Windchill Dew Point Humidity Pressure Visibility Wind Dir Wind Speed Gust Speed Precip Events Conditions
12:16 AM 35.6 °F 25.9 °F 33.8 °F 93% 30.31 in 4.0 mi SSW 16.1 mph - N/A   Overcast
12:36 AM 35.6 °F 25.5 °F 33.8 °F 93% 30.31 in 5.0 mi SSW 17.3 mph - N/A   Overcast
12:56 AM 35.6 °F 25.5 °F 33.8 °F 93% 30.31 in 5.0 mi SW 17.3 mph - N/A   Overcast
1:16 AM 35.6 °F 25.2 °F 33.8 °F 93% 30.32 in 5.0 mi SW 18.4 mph - N/A   Overcast
1:36 AM 35.6 °F 25.2 °F 33.8 °F 93% 30.32 in 3.0 mi SW 18.4 mph - N/A   Overcast
1:56 AM 35.6 °F 25.2 °F 33.8 °F 93% 30.32 in 2.5 mi SW 18.4 mph - N/A   Overcast
2:16 AM 35.6 °F 25.2 °F 33.8 °F 93% 30.32 in 2.5 mi SW 18.4 mph - N/A   Overcast
2:36 AM 35.6 °F 24.5 °F 33.8 °F 93% 30.32 in 3.0 mi SW 20.7 mph - N/A   Overcast
2:56 AM 35.6 °F 24.8 °F 33.8 °F 93% 30.32 in 2.5 mi SSW 19.6 mph - N/A   Overcast
3:16 AM 35.6 °F 24.8 °F 33.8 °F 93% 30.33 in 1.5 mi SSW 19.6 mph - N/A   Overcast
3:36 AM 35.6 °F 25.2 °F 33.8 °F 93% 30.33 in 0.8 mi SW 18.4 mph - N/A   Overcast
3:56 AM 33.8 °F 22.2 °F 32.0 °F 93% 30.33 in 4.0 mi SSW 20.7 mph - N/A   Overcast
4:16 AM 33.8 °F 22.5 °F 32.0 °F 93% 30.33 in 1.2 mi SSW 19.6 mph - N/A   Overcast
4:36 AM 33.8 °F 22.8 °F 32.0 °F 93% 30.34 in 1.0 mi SW 18.4 mph - N/A   Overcast
4:56 AM 33.8 °F 22.5 °F 32.0 °F 93% 30.34 in 1.8 mi SSW 19.6 mph - N/A   Overcast
5:16 AM 33.8 °F 22.8 °F 30.2 °F 87% 30.34 in 1.5 mi SSW 18.4 mph - N/A   Overcast
5:36 AM 33.8 °F 22.8 °F 30.2 °F 87% 30.34 in 0.8 mi SSW 18.4 mph - N/A   Overcast
5:56 AM 33.8 °F 22.8 °F 30.2 °F 87% 30.34 in 0.8 mi SSW 18.4 mph - N/A   Overcast
6:16 AM 33.8 °F 22.8 °F 30.2 °F 87% 30.34 in 0.8 mi SSW 18.4 mph - N/A   Overcast
6:36 AM 33.8 °F 22.8 °F 32.0 °F 93% 30.34 in 3.0 mi SSW 18.4 mph - N/A   Overcast
6:56 AM 33.8 °F 23.2 °F 30.2 °F 87% 30.34 in 0.8 mi SW 17.3 mph - N/A   Overcast
7:16 AM 33.8 °F 23.5 °F 30.2 °F 87% 30.35 in 0.8 mi SSW 16.1 mph - N/A   Overcast
7:36 AM 33.8 °F 22.5 °F 30.2 °F 87% 30.35 in 0.8 mi SSW 19.6 mph - N/A   Overcast
7:56 AM 33.8 °F 22.8 °F 32.0 °F 93% 30.35 in 0.8 mi SSW 18.4 mph - N/A   Overcast
8:16 AM 33.8 °F 22.5 °F 32.0 °F 93% 30.35 in 2.5 mi SSW 19.6 mph - N/A   Overcast
8:36 AM 33.8 °F 23.5 °F 32.0 °F 93% 30.35 in 3.0 mi SSW 16.1 mph - N/A   Overcast
8:56 AM 33.8 °F 23.2 °F 32.0 °F 93% 30.35 in 1.2 mi SSW 17.3 mph - N/A   Overcast
9:16 AM 33.8 °F 23.2 °F 32.0 °F 93% 30.35 in 2.5 mi SSW 17.3 mph - N/A   Overcast
9:36 AM 33.8 °F 22.5 °F 32.0 °F 93% 30.35 in 0.8 mi SSW 19.6 mph - N/A   Overcast
9:56 AM 33.8 °F 22.8 °F 32.0 °F 93% 30.36 in 0.8 mi SSW 18.4 mph - N/A   Overcast
10:16 AM 33.8 °F 23.2 °F 32.0 °F 93% 30.36 in 0.8 mi SSW 17.3 mph - N/A   Overcast
10:36 AM 33.8 °F 22.8 °F 32.0 °F 93% 30.36 in 0.5 mi SSW 18.4 mph - N/A   Overcast
10:56 AM 33.8 °F 23.5 °F 32.0 °F 93% 30.36 in 0.8 mi SSW 16.1 mph - N/A   Overcast
11:16 AM 33.8 °F 23.2 °F 32.0 °F 93% 30.36 in 1.0 mi SSW 17.3 mph - N/A   Overcast
11:36 AM 35.6 °F 26.2 °F 32.0 °F 87% 30.36 in 1.0 mi SSW 15.0 mph - N/A   Overcast
11:56 AM 35.6 °F 25.2 °F 32.0 °F 87% 30.36 in 7.0 mi SSW 18.4 mph - N/A   Overcast
12:16 PM 35.6 °F 25.2 °F 32.0 °F 87% 30.37 in 2.0 mi SSW 18.4 mph - N/A   Overcast
12:36 PM 35.6 °F 25.5 °F 32.0 °F 87% 30.37 in 1.5 mi SSW 17.3 mph - N/A   Overcast
12:56 PM 35.6 °F 25.9 °F 32.0 °F 87% 30.37 in 2.5 mi SSW 16.1 mph - N/A   Overcast
1:16 PM 37.4 °F 27.8 °F 32.0 °F 81% 30.37 in 5.0 mi SSW 17.3 mph - N/A   Overcast
1:36 PM 37.4 °F 27.8 °F 32.0 °F 81% 30.37 in 1.5 mi SSW 17.3 mph - N/A   Overcast
1:56 PM 37.4 °F 27.5 °F 32.0 °F 81% 30.37 in 5.0 mi SSW 18.4 mph - N/A   Overcast
2:16 PM 37.4 °F 28.5 °F 32.0 °F 81% 30.37 in 8.0 mi SSW 15.0 mph - N/A   Overcast
2:36 PM 37.4 °F 28.2 °F 32.0 °F 81% 30.37 in 10.0 mi SSW 16.1 mph - N/A   Overcast
2:56 PM 37.4 °F 28.2 °F 30.2 °F 75% 30.37 in 10.0 mi SSW 16.1 mph - N/A   Overcast
3:16 PM 37.4 °F 28.2 °F 32.0 °F 81% 30.36 in 10.0 mi SSW 16.1 mph - N/A   Overcast
3:36 PM 37.4 °F 27.8 °F 32.0 °F 81% 30.36 in 10.0 mi SSW 17.3 mph - N/A   Overcast
3:56 PM 37.4 °F 27.5 °F 32.0 °F 81% 30.36 in 10.0 mi SSW 18.4 mph - N/A   Overcast
4:16 PM 37.4 °F 27.5 °F 32.0 °F 81% 30.36 in 10.0 mi SSW 18.4 mph - N/A   Overcast
4:36 PM 37.4 °F 27.2 °F 32.0 °F 81% 30.36 in 10.0 mi SSW 19.6 mph - N/A   Overcast
4:56 PM 37.4 °F 27.2 °F 30.2 °F 75% 30.35 in 10.0 mi SSW 19.6 mph - N/A   Overcast
5:16 PM 37.4 °F 27.2 °F 32.0 °F 81% 30.35 in 10.0 mi SSW 19.6 mph - N/A   Overcast
5:36 PM 37.4 °F 27.5 °F 32.0 °F 81% 30.35 in 8.0 mi SSW 18.4 mph - N/A   Overcast
5:56 PM 37.4 °F 26.9 °F 32.0 °F 81% 30.35 in 10.0 mi SSW 20.7 mph - N/A   Overcast
6:16 PM 37.4 °F 27.2 °F 32.0 °F 81% 30.35 in 10.0 mi SSW 19.6 mph - N/A   Overcast
6:36 PM 37.4 °F 26.9 °F 30.2 °F 75% 30.34 in 10.0 mi SSW 20.7 mph - N/A   Overcast
6:56 PM 37.4 °F 26.4 °F 32.0 °F 81% 30.34 in 10.0 mi SSW 23.0 mph - N/A   Overcast
7:16 PM 37.4 °F 26.6 °F 32.0 °F 81% 30.34 in 10.0 mi SSW 21.9 mph - N/A   Overcast
7:36 PM 37.4 °F 27.8 °F 32.0 °F 81% 30.34 in 10.0 mi SSW 17.3 mph - N/A   Overcast
7:56 PM 37.4 °F 27.5 °F 32.0 °F 81% 30.34 in 8.0 mi SSW 18.4 mph - N/A   Overcast
8:16 PM 37.4 °F 28.2 °F 32.0 °F 81% 30.34 in 5.0 mi SSW 16.1 mph - N/A   Overcast
8:36 PM 37.4 °F 27.2 °F 32.0 °F 81% 30.34 in 10.0 mi SSW 19.6 mph - N/A   Overcast
8:56 PM 37.4 °F 27.2 °F 33.8 °F 87% 30.33 in 5.0 mi SSW 19.6 mph - N/A   Overcast
9:16 PM 35.6 °F 25.2 °F 32.0 °F 87% 30.33 in 3.0 mi SSW 18.4 mph - N/A   Overcast
9:36 PM 35.6 °F 24.5 °F 33.8 °F 93% 30.32 in 3.0 mi SSW 20.7 mph - N/A   Overcast
9:56 PM 35.6 °F 25.9 °F 33.8 °F 93% 30.32 in 2.5 mi SSW 16.1 mph - N/A   Overcast
10:16 PM 35.6 °F 25.2 °F 33.8 °F 93% 30.31 in 5.0 mi SSW 18.4 mph - N/A   Overcast
10:36 PM 35.6 °F 27.5 °F 33.8 °F 93% 30.32 in 10.0 mi South 11.5 mph - N/A   Overcast
10:56 PM 35.6 °F 27.1 °F 32.0 °F 87% 30.31 in 10.0 mi South 12.7 mph - N/A   Overcast
11:16 PM 35.6 °F 25.9 °F 33.8 °F 93% 30.31 in 10.0 mi South 16.1 mph - N/A   Overcast
11:36 PM 35.6 °F 25.5 °F 32.0 °F 87% 30.31 in 10.0 mi South 17.3 mph - N/A   Overcast
11:56 PM 35.6 °F 25.2 °F 32.0 °F 87% 30.31 in 9.0 mi South 18.4 mph - N/A   Overcast